Home   Weather   Lakewood   Past weeks

Flag for USA Past Weather in Lakewood, Colorado, USA — Yesterday and Last 2 Weeks

68 °F

Passing clouds.

Feels Like: 68 °F
Forecast: 44 / 79 °F
Wind: 14 mph from Southwest

Location: Centennial Airport

Current Time: Oct 22, 2016 at 10:20:37 AM

Latest Report: Oct 22, 2016 at 9:53 AM

Visibility: 10 mi

Pressure: 29.92 "Hg (24.59 "Hg at 1683m altitude)

Humidity: 11%

Dew Point: 11 °F

Location of LakewoodLocation

Past Weather in Lakewood — Graph


Lakewood Temperature Yesterday

Maximum temperature yesterday: 76 °F (at 2:53 PM)
Minimum temperature yesterday: 37 °F (at 1:53 AM)
Average temperature yesterday: 57 °F

High & Low Weather Summary for the Past Weeks

High85 °F (Oct 16, 2:53 PM)97% (Oct 12, 3:53 AM)30.50 "Hg (Oct 12, 3:53 AM)
Low28 °F (Oct 20, 4:53 AM)8% (Oct 21, 2:53 PM)29.41 "Hg (Oct 17, 4:53 AM)
Average56 °F36%29.99 "Hg
* Reported Oct 7 8:53 AM — Oct 22 8:53 AM, Lakewood, Weather by CustomWeather, © 2016

Note: Actual official high and low records may vary slightly from our data, if they occured in-between our weather recording intervals... More about our weather records


Lakewood Weather History for the Previous 24 Hours

Scroll right to see more
Time TempWeatherWind HumidityBarometerVisibility
8:53 AM
Sat, Oct 22
62 °FPassing clouds.14 mph13%29.93 "Hg10 mi
7:53 AM48 °FPassing clouds.5 mph24%29.96 "Hg10 mi
6:53 AM45 °FPassing clouds.5 mph27%29.97 "Hg10 mi
5:53 AM46 °FPassing clouds.6 mph29%29.93 "Hg10 mi
4:53 AM41 °FClear.3 mph33%29.94 "Hg10 mi
3:53 AM43 °FClear.6 mph32%29.93 "Hg10 mi
2:53 AM48 °FClear.No wind24%29.93 "Hg10 mi
1:53 AM49 °FClear.3 mph23%29.93 "Hg10 mi
12:53 AM46 °FClear.10 mph30%29.95 "Hg10 mi
11:53 PM
Fri, Oct 21
52 °FClear.13 mph22%29.95 "Hg10 mi
10:53 PM53 °FClear.8 mph19%29.98 "Hg10 mi
9:53 PM53 °FPassing clouds.8 mph18%30.00 "Hg10 mi
8:53 PM58 °FPassing clouds.10 mph15%30.01 "Hg10 mi
7:53 PM61 °FPassing clouds.12 mph14%30.07 "Hg10 mi
6:53 PM61 °FPassing clouds.7 mph14%30.07 "Hg10 mi
5:53 PM69 °FPassing clouds.6 mph10%30.02 "Hg10 mi
4:53 PM75 °FPassing clouds.8 mph8%30.00 "Hg10 mi
3:53 PM75 °FPassing clouds.6 mph8%30.01 "Hg10 mi
2:53 PM76 °FPassing clouds.5 mph8%29.99 "Hg10 mi
1:53 PM75 °FSunny.7 mph9%30.03 "Hg10 mi
12:53 PM72 °FScattered clouds.3 mph10%30.06 "Hg10 mi
11:53 AM71 °FPartly sunny.No wind9%30.07 "Hg10 mi
10:53 AM67 °FPartly sunny.10 mph11%30.11 "Hg10 mi
Weather by CustomWeather, © 2016

See weather overviewHow to use our weather pages